N4QEP-13 Weather Reports


time (UTC)temp
C
wind
direction
speed
KPH
gust
KPH
rain 1hr
cm
rain 24hr
cm
rain mn
cm
humidity
%
barometer
mb
20260504081523 10 88 0.0 0.0 0.00 0.00 0.00 74 1018.9
20260504050019 12 36 0.0 0.0 0.00 0.00 0.00 67 1019.8
20260504044516 12 37 0.0 0.0 0.00 0.00 0.00 66 1019.8
20260504043017 12 37 0.0 0.0 0.00 0.00 0.00 67 1019.9
20260504041545 12 37 0.0 0.0 0.00 0.00 0.00 66 1019.7
20260504040103 12 35 0.0 1.6 0.00 0.00 0.00 66 1019.6
20260504034542 13 28 0.0 0.0 0.00 0.00 0.00 65 1019.6
20260504033042 13 28 0.0 1.6 0.00 0.00 0.00 64 1019.6
20260504031542 13 13 0.0 1.6 0.00 0.00 0.00 63 1019.7
20260504030041 13 9 0.0 1.6 0.00 0.00 0.00 61 1019.8
20260504024511 13 58 0.0 1.6 0.00 0.00 0.00 61 1019.7
20260504023011 13 330 0.0 1.6 0.00 0.00 0.00 60 1019.6
20260504021507 14 330 0.0 0.0 0.00 0.00 0.00 59 1019.4
20260504020007 15 54 0.0 1.6 0.00 0.00 0.00 57 1019.2
20260504014519 16 54 0.0 1.6 0.00 0.00 0.00 55 1019.0
20260504013006 16 339 0.0 0.0 0.00 0.00 0.00 53 1018.9
20260504011503 17 339 0.0 0.0 0.00 0.00 0.00 50 1018.7
20260504010003 17 339 0.0 0.0 0.00 0.00 0.00 46 1018.4
20260504004503 18 339 0.0 0.0 0.00 0.00 0.00 40 1018.4
20260504003003 20 339 0.0 0.0 0.00 0.00 0.00 40 1018.2
20260504001608 21 338 0.0 0.0 0.00 0.00 0.00 35 1018.2
20260504000127 22 339 0.0 4.8 0.00 0.00 0.00 26 1018.1
20260503234558 23 340 3.2 8.0 0.00 0.00 0.00 24 1018.2
20260503233058 23 330 3.2 8.0 0.00 0.00 0.00 23 1018.2
20260503231557 23 283 1.6 8.0 0.00 0.00 0.00 24 1018.2
20260503230026 24 13 6.4 16.1 0.00 0.00 0.00 22 1018.1
20260503224526 24 334 3.2 11.3 0.00 0.00 0.00 21 1018.1
20260503223024 24 34 8.0 16.1 0.00 0.00 0.00 21 1018.0
20260503221523 24 81 8.0 14.5 0.00 0.00 0.00 20 1018.1
20260503220020 25 293 1.6 12.9 0.00 0.00 0.00 22 1018.2
20260503214519 25 64 1.6 12.9 0.00 0.00 0.00 20 1018.3
20260503213018 25 53 6.4 19.3 0.00 0.00 0.00 19 1018.5
20260503211514 25 8 11.3 19.3 0.00 0.00 0.00 18 1018.7
20260503210011 25 24 6.4 16.1 0.00 0.00 0.00 19 1018.8
20260503204511 25 342 4.8 14.5 0.00 0.00 0.00 21 1018.9
20260503203010 25 43 0.0 12.9 0.00 0.00 0.00 19 1019.0
20260503201504 24 337 6.4 16.1 0.00 0.00 0.00 20 1019.3
20260503200007 24 340 4.8 19.3 0.00 0.00 0.00 20 1019.4
20260503194501 24 352 3.2 17.7 0.00 0.00 0.00 20 1019.7
20260503193111 24 20 4.8 14.5 0.00 0.00 0.00 19 1020.0
20260503191605 23 30 6.4 20.9 0.00 0.00 0.00 19 1020.5
20260503190056 23 26 8.0 17.7 0.00 0.00 0.00 20 1020.7
20260503184554 23 355 8.0 20.9 0.00 0.00 0.00 19 1021.0
20260503183108 23 6 6.4 17.7 0.00 0.00 0.00 21 1021.1
20260503181617 23 3 1.6 14.5 0.00 0.00 0.00 24 1021.1
20260503180049 23 304 6.4 17.7 0.00 0.00 0.00 23 1021.0
20260503174548 23 334 4.8 20.9 0.00 0.00 0.00 21 1021.2
20260503173052 22 63 8.0 16.1 0.00 0.00 0.00 20 1021.4
20260503171543 22 69 8.0 19.3 0.00 0.00 0.00 21 1021.6